Simultaneous Nadir Overpasses (SNOs) Predictions

Prediction of SNOs between LANDSAT-8 and METOP-B Satellite Orbit:

Table of predicted SNOs for the next 14.0 days since TLE Epoch: 11/25/2017
Index Date (LANDSAT-8) Time (LANDSAT-8) Lat,Lon (LANDSAT-8) SZA (LANDSAT-8 ) Date (METOP-B) Time (METOP-B) Lat,Lon (METOP-B) SZA (METOP-B ) Distance(km) Time Diff (sec)
1 11/26/2017 11:26:27 -81.11,-131.94 75.65 11/26/2017 11:25:27 -81.11,-131.99 75.68 0.93 60
2 11/26/2017 12:15:52 81.14, 36.16 104.43 11/26/2017 12:16:06 81.14, 36.11 104.43 0.96 14
3 11/29/2017 07:00:40 -81.13, -65.19 75.13 11/29/2017 06:59:49 -81.13, -65.12 75.15 1.27 51
4 11/29/2017 07:50:06 81.14, 102.52 104.89 11/29/2017 07:50:29 81.14, 102.57 104.91 1.03 23
5 12/02/2017 02:34:53 -81.12, 1.15 74.73 12/02/2017 02:34:12 -81.12, 0.99 74.77 2.91 41
6 12/02/2017 03:24:18 81.15, 169.20 105.34 12/02/2017 03:24:51 81.14, 169.01 105.33 3.28 33
7 12/04/2017 22:09:07 -81.12, 67.45 74.40 12/04/2017 22:08:35 -81.12, 67.46 74.40 0.51 32
8 12/04/2017 22:58:32 81.14,-124.53 105.67 12/04/2017 22:59:14 81.14,-124.56 105.69 0.49 42
9 12/07/2017 17:43:20 -81.13, 134.07 74.07 12/07/2017 17:42:58 -81.12, 133.91 74.10 2.78 22




NCC Satellite Simultaneous Nadir Overpasses (SNOs) Prediction Service
